Regional Weather Roundup
Issued by NWS

Home | Current Version | Previous Version | Text Only | Print | Product List | Glossary Off
Versions: 1 2 3 4 5 6 7 8 9 10 11 12 13 14 15 16 17 18 19 20 21 22 23 24 25 26 27 28 29 30 31 32 33 34 35 36 37 38 39 40 41 42 43 44 45 46 47 48 49 50

000
ASUS44 KMEG 211000
RWRTN
TENNESSEE HOURLY STATE WEATHER ROUNDUP
NATIONAL WEATHER SERVICE MEMPHIS TN
500 AM CDT MON MAY 21 2018

TNZ002-004-019-021-049-052-054-088>092-211100-
WEST TENNESSEE

CITY           SKY/WX    TMP DP  RH WIND       PRES   REMARKS
MEMPHIS INTL   LGT RAIN  69  67  93 E3        30.06F
NWS MEMPHIS      N/A     66 N/A N/A MISG        N/A
JACKSON        MOCLDY    71  67  87 NW5       30.09R
DYERSBURG      RAIN      69  68  96 W6        30.12R
$$

TNZ008-025-027-028-033-062-065-066-211100-
NORTH MIDDLE TENNESSEE

CITY           SKY/WX    TMP DP  RH WIND       PRES   REMARKS
NASHVILLE      MOCLDY    67  64  90 S5        30.09R
CLARKSVILLE    FAIR      67  63  87 CALM      30.08R
SMYRNA         FAIR      65  64  97 S5        30.11R
CROSSVILLE     FAIR      63  61  93 CALM      30.17R
$$

TNZ061-075-076-078-094-096-097-211100-
SOUTH MIDDLE TENNESSEE

CITY           SKY/WX    TMP DP  RH WIND       PRES   REMARKS
$$

TNZ017-018-042-046-047-211100-
NORTHEAST TENNESSEE

CITY           SKY/WX    TMP DP  RH WIND       PRES   REMARKS
TRI CITIES     MOCLDY    63  63 100 CALM      30.17R FOG
$$

TNZ012-013-036-069-073-074-211100-
CENTRAL EAST TENNESSEE

CITY           SKY/WX    TMP DP  RH WIND       PRES   REMARKS
KNOXVILLE      CLOUDY    68  65  90 W6        30.14R
OAK RIDGE      FAIR      69  67  93 S3        30.16R
$$

TNZ083-085-099-211100-
SOUTHEAST TENNESSEE

CITY           SKY/WX    TMP DP  RH WIND       PRES   REMARKS
CHATTANOOGA    MOCLDY    68  65  90 E3        30.14S
$$

SKY/WX REPORTED AS FAIR MEANS FEW OR NO CLOUDS BELOW
12 THOUSAND FEET.





USA.gov is the U.S. government's official web portal to all federal, state and local government web resources and services.